Ana Sayfa
METAR-TAF:

METAR-TAF

Havaalanları :

South Jersey Regional Airport

Mount Holly, New Jersey, Amerika Birleşik Devletleri

Enlem: 39-56-26N, Boylam: 074-50-28W, yükseklik: 16 m

Güncel hava durumu gözlemi

Rapor saat 20:54 UTC de 1 saat ve 2 dakika önce yapıldı.
Rüzgar güneydan 5 kt
Sıcaklık 16°C
Nem 27%
Basınç 1014 hPa
Görüş mesafesi: 16.1 km
Açık gökyüzü

METAR: KVAY 242054Z AUTO 18005KT 10SM CLR 16/M03 A2995 RMK AO2 SLPNO T01611028 56019 $

Saat: 16:56 (21:56 UTC)


TAF: eksik

4.000'den fazla havaalanı için hava durumu gözlemleri ve tahminleri (METAR ve TAF raporları).

Kullanılabilir istasyonlar harita üzerinde sarı ve kırmızı noktalarla gösterilir.

İstasyonun adını görmek için fareyi noktanın üzerinde gezdirin.

Sonrasında hava gözlem ve tahminlerini görmek için tıklayın.

Haritayı değiştirmek için: yaklaştırmak için siyah artı işaretli yeşil düğmeye ve uzaklaştırmak için de eksi işaretli düğmeye hızla tıklayın; bitişik haritalar için yeşil okları kullanın.


METAR-TAF: